Regional Weather Roundup
Issued by NWS

Home | Current Version | Previous Version | Graphics & Text | Print | Product List | Glossary Off
Versions: 1 2 3 4 5 6 7 8 9 10 11 12 13 14 15 16 17 18 19 20 21 22 23 24 25 26 27 28 29 30 31 32 33 34 35 36 37 38 39 40 41 42 43 44 45 46 47 48 49 50

000
ASUS43 KMKX 051459
RWRWI

WISCONSIN REGIONAL WEATHER ROUNDUP
NATIONAL WEATHER SERVICE MILWAUKEE/SULLIVAN WI
900 AM CST THU MAR 05 2015

NOTE: "FAIR" INDICATES FEW OR NO CLOUDS BELOW 12,000 FEET WITH NO
SIGNIFICANT WEATHER AND/OR OBSTRUCTIONS TO VISIBILITY.

WIZ001-002-006>008-014>016-023>028-051600-
NORTHWEST WISCONSIN

CITY           SKY/WX    TMP DP  RH WIND       PRES   REMARKS
SUPERIOR ARPT  MOSUNNY   -8 -15  70 SW7       30.47R WCI -23
ASHLAND        SUNNY     -4 -14  62 SW8       30.45R WCI -19
HAYWARD        SUNNY    -10 -16  74 S5        30.43R WCI -22
SIREN          MOSUNNY   -6 -14  69 W6        30.48R WCI -19
CUMBERLAND     SUNNY    -13 -18  77 SW3       30.44R
RICE LAKE      SUNNY    -12 -17  75 W3        30.47R
CHETEK         SUNNY    -11 -17  76 CALM      30.47R
LADYSMITH      SUNNY    -13 -20  73 CALM      30.44R
EAU CLAIRE     NOT AVBL
MENOMONIE      SUNNY     -4 -14  63 W5        30.50R WCI -15
NEW RICHMOND   SUNNY     -5 -12  71 W6        30.49R WCI -18
OSCEOLA        SUNNY    -12 -17  78 CALM      30.53R
$$

WIZ003>005-009-010-017-018-051600-
NORTH CENTRAL WISCONSIN

CITY           SKY/WX    TMP DP  RH WIND       PRES   REMARKS
MANITOWISH WTR SUNNY     -9 -15  76 CALM      30.33R
ARBOR VITAE    SUNNY     -6 -13  71 W5        30.33R WCI -17
WOODRUFF       SUNNY     -6 -13  71 W5        30.33R WCI -17
RHINELANDER    SUNNY     -6 -14  68 W5        30.34R WCI -17
EAGLE RIVER    SUNNY     -6 -15  67 CALM      30.32R
LAND O LAKES   SUNNY     -2  -9  71 W6        30.32R WCI -14
PHILLIPS       MOSUNNY  -11 -18  73 CALM      30.37R
TOMAHAWK       SUNNY     -6 -13  70 CALM      30.37R
MEDFORD        SUNNY     -8 -16  68 CALM      30.38R
MERRILL        SUNNY     -8 -16  69 CALM      30.39R
$$

WIZ029-030-035-036-043>047-051600-
CENTRAL WISCONSIN

CITY           SKY/WX    TMP DP  RH WIND       PRES   REMARKS
WAUSAU         SUNNY     -4 -14  62 NW6       30.41R WCI -16
MOSINEE        SUNNY     -2 -11  65 W3        30.43R
MARSHFIELD     SUNNY     -5 -14  65 W7        30.43R WCI -19
STEVENS POINT  SUNNY     -5 -15  60 CALM      30.44R
WAUPACA        SUNNY      4 -10  51 CALM      30.47R
WAUTOMA        NOT AVBL
WISC RAPIDS    SUNNY     -1 -13  56 CALM      30.48R
CAMP DOUGLAS   NOT AVBL
$$

WIZ011>013-019>022-031-037>040-048>050-051600-
NORTHEAST WISCONSIN

CITY           SKY/WX    TMP DP  RH WIND       PRES   REMARKS
ANTIGO         SUNNY    -12 -17  78 CALM      30.36R
SHAWANO        SUNNY      2 -10  56 W3        30.46R
OCONTO         FAIR       1 -10  62 W6        30.46R WCI -11
STURGEON BAY   SUNNY      0  -9  65 CALM      30.46R
GREEN BAY      SUNNY      2  -9  60 W3        30.47R
MANITOWOC      NOT AVBL
APPLETON       SUNNY      0 -11  60 W5        30.46R WCI -10
CLINTONVILLE   SUNNY      1  -9  60 NW5       30.46R WCI  -8
OSHKOSH        SUNNY      2  -9  60 W6        30.47R WCI  -9
$$

WIZ032>034-041-042-053>061-051600-
SOUTHWEST WISCONSIN

CITY           SKY/WX    TMP DP  RH WIND       PRES   REMARKS
LA CROSSE      SUNNY      2 -10  57 CALM      30.55R
SPARTA         SUNNY      1 -10  59 W3        30.52R
VIROQUA        SUNNY     -2 -10  67 W3        30.46R
BOSCOBEL       SUNNY      2  -7  66 S3        30.55R
PRAIRIE DU CHI SUNNY     -1 -12  60 W5        30.56R WCI -11
PLATTEVILLE    SUNNY     -3  -9  74 W3        30.49R
$$

WIZ056-057-062-063-064-067-068-051600-
SOUTH CENTRAL WISCONSIN

CITY           SKY/WX    TMP DP  RH WIND       PRES   REMARKS
REEDSBURG      SUNNY      1 -10  61 NW5       30.49R WCI  -9
BARABOO/DELLS  SUNNY      1 -11  55 CALM      30.48R
LONE ROCK      NOT AVBL
MINERAL POINT  SUNNY      3  -8  60 NW3       30.46R
MADISON        SUNNY      5  -9  52 N7        30.49R WCI  -7
MIDDLETON      SUNNY      5 -10  49 NW5       30.49R WCI  -4
WATERTOWN      SUNNY      4  -8  58 NW3       30.47R
MONROE         SUNNY      3  -6  66 NW6       30.45R WCI  -8
JANESVILLE     SUNNY      3  -6  66 NW6       30.48R WCI  -8
$$

WIZ051-052-058>065-066-070>072-051600-
SOUTHEAST WISCONSIN

CITY           SKY/WX    TMP DP  RH WIND       PRES   REMARKS
MILWAUKEE      MOSUNNY    9  -9  44 NW8       30.46R WCI  -3
WAUKESHA       NOT AVBL
MILWAUKEE/TIMM SUNNY      7 -11  43 NW10      30.47R WCI  -8
RACINE         SUNNY      8  -9  45 NW8       30.47R WCI  -4
BURLINGTON     SUNNY      2 -10  57 NW8       30.46R WCI -11
KENOSHA        SUNNY      4  -9  55 NW7       30.46R WCI  -8
FOND DU LAC    SUNNY      5  -9  52 CALM      30.48R
SHEBOYGAN      SUNNY      3  -9  57 W8        30.46R WCI -10
WEST BEND      SUNNY      5  -9  51 NW8       30.45R WCI  -8
JUNEAU         SUNNY      2  -9  59 NW5       30.47R WCI  -7
$$

LSZ147-162-051600-
LAKE SUPERIOR

STATION/POSITION TIME  TEMP    WIND        PRES    WAVE
                       AIR SEA DIR/SP/G            HT/PER
                 (UTC) (F)     (DEG/KT/KT) (MB)    (FT/S)
DEVILS ISLAND    1400   -1     230/ 13/ 15 1031.8R
PORT WING        1400   -8     210/  5/  8 1031.2
SAXON HARBOR     1400   -4     200/  7/ 12 1030.5R
$$

LMZ867-665-643>646-051600-
LAKE MICHIGAN

STATION/POSITION TIME  TEMP    WIND        PRES    WAVE
                       AIR SEA DIR/SP/G            HT/PER
                 (UTC) (F)     (DEG/KT/KT) (MB)    (FT/S)
NORTHPORT PIER   1415    0     300/  7/ 11 1030.1R
SISTER BAY       1443    8     300/  7/  8   N/A
KEWAUNEE LAKESHO 1400    0     300/  7/ 11 1029.7R
SHEBOYGAN LAKESH 1400    3     290/  9/ 11 1033.5R
PORT WASHINGTON  1400    4     310/  8/ 13 1032.5R
MILWAUKEE LAKESH 1400    6     310/  8/ 11   N/A
KENOSHA   LAKESH 1400    5     310/  7/ 11 1030.8R
$$

TC  - TEMPERATURE IN CELSIUS
VSB - VISIBILITY IN STATUTE MILES
WCI - WIND CHILL INDEX
HX  - HEAT INDEX




USA.gov is the U.S. government's official web portal to all federal, state and local government web resources and services.